FW9743 Weather Reports


Display with metric or nautical units.
time (UTC)temp
F
wind
direction
speed
MPH
gust
MPH
rain 1hr
in
rain 24hr
in
rain mn
in
humidity
%
barometer
mb
20260505034547 47 287 2.0 3.0 0.00 0.00 0.00 76 1014.0
20260505033054 47 338 1.0 4.0 0.00 0.00 0.00 78 1014.1
20260505031551 46 5 2.0 4.0 0.00 0.00 0.00 78 1014.0
20260505030049 46 27 2.0 4.0 0.00 0.00 0.00 77 1014.0
20260505024547 47 24 3.0 3.0 0.00 0.00 0.00 74 1014.1
20260505023048 0 11 3.0 3.0 0.00 0.00 0.00 1014.2
20260505021546 0 0.0 0.0 0.00 0.00 0.00 1014.2
20260505020046 48 5 2.0 3.0 0.00 0.00 0.00 75 1014.3
20260505014545 48 5 3.0 4.0 0.00 0.00 0.00 74 1014.4
20260505013044 47 5 2.0 3.0 0.00 0.00 0.00 74 1014.5
20260505011548 47 0 1.0 3.0 0.00 0.00 0.00 74 1014.6
20260505010058 49 333 1.0 3.0 0.00 0.00 0.00 72 1014.6
20260505004548 50 314 2.0 4.0 0.00 0.00 0.00 71 1014.6
20260505003054 52 360 1.0 3.0 0.00 0.00 0.00 70 1014.6
20260505001552 52 360 0.0 1.0 0.00 0.00 0.00 67 1014.7
20260505000100 0 0.0 0.0 0.00 0.00 0.00 1014.9
20260504234602 50 360 1.0 2.0 0.00 0.00 0.00 72 1015.0
20260504233051 49 360 1.0 3.0 0.00 0.00 0.00 70 1015.1
20260504231550 50 0 0.0 0.0 0.00 0.00 0.00 70 1015.1
20260504230054 52 0 0.0 1.0 0.00 0.00 0.00 67 1015.3
20260504224552 53 0 0.0 1.0 0.00 0.00 0.00 65 1015.4
20260504223050 54 0 0.0 2.0 0.00 0.00 0.00 64 1015.4
20260504221549 54 223 1.0 2.0 0.00 0.00 0.00 66 1015.5
20260504214545 54 0 0.0 0.0 0.00 0.00 0.00 64 1015.4
20260504213107 55 0 0.0 0.0 0.00 0.00 0.00 62 1015.5
20260504211551 56 0 0.0 2.0 0.00 0.00 0.00 61 1015.5
20260504210052 56 111 0.0 1.0 0.00 0.00 0.00 61 1015.5
20260504204559 56 0 0.0 0.0 0.00 0.00 0.00 60 1015.5
20260504203051 56 111 1.0 2.0 0.00 0.00 0.00 60 1015.5
20260504201549 57 0 0.0 0.0 0.00 0.00 0.00 59 1015.5
20260504200053 58 0 0.0 2.0 0.00 0.00 0.00 58 1015.5
20260504194549 59 124 1.0 2.0 0.00 0.00 0.00 58 1015.5
20260504193104 62 124 1.0 2.0 0.00 0.00 0.00 53 1015.5
20260504191548 63 124 2.0 3.0 0.00 0.00 0.00 51 1015.3
20260504190053 64 0.0 0.0 0.00 0.00 0.00 50 1015.4
20260504184544 64 0 0.0 0.0 0.00 0.00 0.00 49 1015.3
20260504183058 64 0 0.0 2.0 0.00 0.00 0.00 49 1015.2
20260504181546 65 78 1.0 3.0 0.00 0.00 0.00 49 1014.9
20260504180122 65 88 3.0 7.0 0.00 0.00 0.00 49 1015.0
20260504174548 67 93 5.0 7.0 0.00 0.00 0.00 46 1014.9
20260504173049 71 73 4.0 6.0 0.00 0.00 0.00 42 1015.0
20260504171552 72 120 3.0 4.0 0.00 0.00 0.00 39 1014.9
20260504081545 67 0 3.0 9.0 0.00 0.00 0.00 44 1019.3
20260504044550 47 0 0.0 3.0 0.00 0.00 0.00 75 1019.1
20260504043059 45 0 0.0 0.0 0.00 0.00 0.00 78 1019.0
20260504041549 43 0 0.0 0.0 0.00 0.00 0.00 78 1018.9
20260504040056 42 0 0.0 2.0 0.00 0.00 0.00 80 1018.9